User: anonymous   Login
Location: Toronto
(43.6672°N, 79.4170°W)
Time: 21:14:30
(UTC-04:00)
Language:

ISS - Orbit

View from above orbital plane
View from above orbital plane
View from above satellite
View from above satellite

Ground track
Ground track

The orbit data is extracted from the following two-line orbital elements,

1 25544U 98067A   17150.54418471  .00016717  00000-0  10270-3 0  9049
2 25544  51.6370 126.2668 0004840 215.2593 144.8240 15.53946216 19003
Epoch (UTC): 30 May 2017 13:03:37
Eccentricity: 0.0004840
inclination: 51.6370°
perigee height: 402 km
apogee height: 408 km
right ascension of ascending node: 126.2668°
argument of perigee: 215.2593°
revolutions per day: 15.53946216
mean anomaly at epoch: 144.8240°
orbit number at epoch: 1900

The dashed part of the orbit path shows where the satellite is in the earth's shadow,  

DLR